User: anonymous   Login
Location: Montr�al
(45.5000°N, 73.5830°W)
Time: 04:02:31
(UTC-04:00)
Language:

Cosmos 2369 - Orbit

View from above orbital plane
View from above orbital plane
View from above satellite
View from above satellite

Ground track
Ground track

The orbit data is extracted from the following two-line orbital elements,

1 26069U 00006A   17114.92894290 -.00000057 +00000-0 -48903-5 0  9999
2 26069 070.9951 110.6347 0013706 305.4515 054.5326 14.13358267151943
Epoch (UTC): 24 April 2017 22:17:40
Eccentricity: 0.0013706
inclination: 70.9951°
perigee height: 838 km
apogee height: 858 km
right ascension of ascending node: 110.6347°
argument of perigee: 305.4515°
revolutions per day: 14.13358267
mean anomaly at epoch: 54.5326°
orbit number at epoch: 15194

The dashed part of the orbit path shows where the satellite is in the earth's shadow,  

DLR